owner,sensor,date,latitude,longitude,vertical_datum,wind_speed,wind_to_direction,wind_speed_of_gust,qcFlag 
DISL,ioos:station:DISL:MBLA:1,2006-09-01T06:30:00Z,30.4367,-88.0117,14.2,9.0,3.0,99.0,'11111222,11111222,11144222' 
DISL,ioos:station:DISL:MBLA:1,2006-09-01T07:00:00Z,30.4367,-88.0117,14.2,9.0,41.0,99.0,'11111222,11111222,11144222' 
DISL,ioos:station:DISL:MBLA:1,2006-09-01T07:30:00Z,30.4367,-88.0117,14.2,8.5,111.0,99.0,'11111222,11111222,11144222' 
DISL,ioos:station:DISL:MBLA:1,2006-09-01T08:00:00Z,30.4367,-88.0117,14.2,8.5,10.0,99.0,'11111222,11111222,11144222' 
DISL,ioos:station:DISL:MBLA:1,2006-09-01T08:30:00Z,30.4367,-88.0117,14.2,8.8,6.0,99.0,'11111222,11111222,11144222' 
DISL,ioos:station:DISL:MBLA:1,2006-09-01T09:00:00Z,30.4367,-88.0117,14.2,9.5,5.0,99.0,'11111222,11111222,11144222' 
DISL,ioos:station:DISL:MBLA:1,2006-09-01T09:30:00Z,30.4367,-88.0117,14.2,9.5,41.0,99.0,'11111222,11111222,11144222' 
DISL,ioos:station:DISL:MBLA:1,2006-09-01T10:00:00Z,30.4367,-88.0117,14.2,9.3,39.0,99.0,'11111222,11111222,11144222' 
DISL,ioos:station:DISL:MBLA:1,2006-09-01T10:30:00Z,30.4367,-88.0117,14.2,8.8,6.0,99.0,'11111222,11111222,11144222' 
DISL,ioos:station:DISL:MBLA:1,2006-09-01T11:00:00Z,30.4367,-88.0117,14.2,9.0,5.0,99.0,'11111222,11111222,11144222' 
DISL,ioos:station:DISL:MBLA:1,2006-09-01T11:30:00Z,30.4367,-88.0117,14.2,8.1,12.0,99.0,'11111222,11111222,11144222' 
DISL,ioos:station:DISL:MBLA:1,2006-09-01T12:00:00Z,30.4367,-88.0117,14.2,7.7,10.0,99.0,'11111222,11111222,11144222' 
DISL,ioos:station:DISL:MBLA:1,2006-09-01T12:30:00Z,30.4367,-88.0117,14.2,6.4,8.0,99.0,'11111222,11111222,11144222' 
DISL,ioos:station:DISL:MBLA:1,2006-09-01T13:00:00Z,30.4367,-88.0117,14.2,7.4,144.0,99.0,'11111222,11111222,11144222' 
DISL,ioos:station:DISL:MBLA:1,2006-09-01T13:30:00Z,30.4367,-88.0117,14.2,7.2,74.0,99.0,'11111222,11111222,11144222' 
DISL,ioos:station:DISL:MBLA:1,2006-09-01T14:00:00Z,30.4367,-88.0117,14.2,7.2,75.0,99.0,'11111222,11111222,11144222' 
DISL,ioos:station:DISL:MBLA:1,2006-09-01T14:30:00Z,30.4367,-88.0117,14.2,6.9,179.0,99.0,'11111222,11111222,11144222' 
DISL,ioos:station:DISL:MBLA:1,2006-09-01T15:00:00Z,30.4367,-88.0117,14.2,6.7,251.0,99.0,'11111222,11111222,11144222' 
DISL,ioos:station:DISL:MBLA:1,2006-09-01T15:30:00Z,30.4367,-88.0117,14.2,6.1,40.0,99.0,'11111222,11111222,11144222' 
DISL,ioos:station:DISL:MBLA:1,2006-09-01T16:00:00Z,30.4367,-88.0117,14.2,5.8,10.0,99.0,'11111222,11111222,11144222' 
DISL,ioos:station:DISL:MBLA:1,2006-09-01T16:30:00Z,30.4367,-88.0117,14.2,4.6,15.0,99.0,'11111222,11111222,11144222' 
DISL,ioos:station:DISL:MBLA:1,2006-09-01T17:00:00Z,30.4367,-88.0117,14.2,3.9,19.0,99.0,'11111222,11111222,11144222' 
DISL,ioos:station:DISL:MBLA:1,2006-09-01T17:30:00Z,30.4367,-88.0117,14.2,3.1,37.0,99.0,'11111222,11111222,11144222' 
DISL,ioos:station:DISL:MBLA:1,2006-09-01T18:00:00Z,30.4367,-88.0117,14.2,2.9,52.0,99.0,'11111222,11111222,11144222' 
DISL,ioos:station:DISL:MBLA:1,2006-09-01T18:30:00Z,30.4367,-88.0117,14.2,2.2,59.0,99.0,'11111222,11111222,11144222' 
DISL,ioos:station:DISL:MBLA:1,2006-09-01T19:00:00Z,30.4367,-88.0117,14.2,2.1,55.0,99.0,'11111222,11111222,11144222' 
DISL,ioos:station:DISL:MBLA:1,2006-09-01T19:30:00Z,30.4367,-88.0117,14.2,2.1,50.0,99.0,'11111222,11111222,11144222' 
DISL,ioos:station:DISL:MBLA:1,2006-09-01T20:00:00Z,30.4367,-88.0117,14.2,2.4,200.0,99.0,'11111222,11111222,11144222' 
DISL,ioos:station:DISL:MBLA:1,2006-09-01T20:30:00Z,30.4367,-88.0117,14.2,3.7,199.0,99.0,'11111222,11111222,11144222' 
DISL,ioos:station:DISL:MBLA:1,2006-09-01T21:00:00Z,30.4367,-88.0117,14.2,4.3,202.0,99.0,'11111222,11111222,11144222' 
DISL,ioos:station:DISL:MBLA:1,2006-09-01T21:30:00Z,30.4367,-88.0117,14.2,6.7,201.0,99.0,'11111222,11111222,11144222' 
DISL,ioos:station:DISL:MBLA:1,2006-09-01T22:00:00Z,30.4367,-88.0117,14.2,5.7,229.0,99.0,'11111222,11111222,11144222' 
DISL,ioos:station:DISL:MBLA:1,2006-09-01T22:30:00Z,30.4367,-88.0117,14.2,7.1,241.0,99.0,'11111222,11111222,11144222' 
DISL,ioos:station:DISL:MBLA:1,2006-09-01T23:00:00Z,30.4367,-88.0117,14.2,7.1,247.0,99.0,'11111222,11111222,11144222' 
DISL,ioos:station:DISL:MBLA:1,2006-09-01T23:30:00Z,30.4367,-88.0117,14.2,8.1,240.0,99.0,'11111222,11111222,11144222' 
DISL,ioos:station:DISL:MBLA:1,2006-09-02T06:30:00Z,30.4367,-88.0117,14.2,4.9,321.0,99.0,'11111222,11111222,11144222' 
DISL,ioos:station:DISL:MBLA:1,2006-09-02T07:00:00Z,30.4367,-88.0117,14.2,5.7,329.0,99.0,'11111222,11111222,11144222' 
DISL,ioos:station:DISL:MBLA:1,2006-09-02T07:30:00Z,30.4367,-88.0117,14.2,4.9,346.0,99.0,'11111222,11111222,11144222' 
DISL,ioos:station:DISL:MBLA:1,2006-09-02T08:00:00Z,30.4367,-88.0117,14.2,4.6,347.0,99.0,'11111222,11111222,11144222' 
DISL,ioos:station:DISL:MBLA:1,2006-09-02T08:30:00Z,30.4367,-88.0117,14.2,5.9,43.0,99.0,'11111222,11111222,11144222' 
DISL,ioos:station:DISL:MBLA:1,2006-09-02T09:00:00Z,30.4367,-88.0117,14.2,6.2,15.0,99.0,'11111222,11111222,11144222' 
DISL,ioos:station:DISL:MBLA:1,2006-09-02T09:30:00Z,30.4367,-88.0117,14.2,6.3,19.0,99.0,'11111222,11111222,11144222' 
DISL,ioos:station:DISL:MBLA:1,2006-09-02T10:00:00Z,30.4367,-88.0117,14.2,6.3,15.0,99.0,'11111222,11111222,11144222' 
DISL,ioos:station:DISL:MBLA:1,2006-09-02T10:30:00Z,30.4367,-88.0117,14.2,6.0,19.0,99.0,'11111222,11111222,11144222' 
DISL,ioos:station:DISL:MBLA:1,2006-09-02T11:00:00Z,30.4367,-88.0117,14.2,5.9,13.0,99.0,'11111222,11111222,11144222' 
DISL,ioos:station:DISL:MBLA:1,2006-09-02T11:30:00Z,30.4367,-88.0117,14.2,5.7,16.0,99.0,'11111222,11111222,11144222' 
DISL,ioos:station:DISL:MBLA:1,2006-09-02T12:00:00Z,30.4367,-88.0117,14.2,6.2,10.0,99.0,'11111222,11111222,11144222' 
DISL,ioos:station:DISL:MBLA:1,2006-09-02T12:30:00Z,30.4367,-88.0117,14.2,5.8,13.0,99.0,'11111222,11111222,11144222' 
DISL,ioos:station:DISL:MBLA:1,2006-09-02T13:00:00Z,30.4367,-88.0117,14.2,5.5,27.0,99.0,'11111222,11111222,11144222' 
DISL,ioos:station:DISL:MBLA:1,2006-09-02T13:30:00Z,30.4367,-88.0117,14.2,5.3,23.0,99.0,'11111222,11111222,11144222' 
DISL,ioos:station:DISL:MBLA:1,2006-09-02T14:00:00Z,30.4367,-88.0117,14.2,4.4,24.0,99.0,'11111222,11111222,11144222' 
DISL,ioos:station:DISL:MBLA:1,2006-09-02T14:30:00Z,30.4367,-88.0117,14.2,3.7,29.0,99.0,'11111222,11111222,11144222' 
DISL,ioos:station:DISL:MBLA:1,2006-09-02T15:00:00Z,30.4367,-88.0117,14.2,2.1,35.0,99.0,'11111222,11111222,11144222' 
DISL,ioos:station:DISL:MBLA:1,2006-09-02T15:30:00Z,30.4367,-88.0117,14.2,1.3,248.0,99.0,'11111222,11111222,11144222' 
DISL,ioos:station:DISL:MBLA:1,2006-09-02T16:00:00Z,30.4367,-88.0117,14.2,1.3,339.0,99.0,'11111222,11111222,11144222' 
DISL,ioos:station:DISL:MBLA:1,2006-09-02T16:30:00Z,30.4367,-88.0117,14.2,0.5,292.0,99.0,'11111222,11111222,11144222' 
DISL,ioos:station:DISL:MBLA:1,2006-09-02T17:00:00Z,30.4367,-88.0117,14.2,0.7,213.0,99.0,'11111222,11111222,11144222' 
DISL,ioos:station:DISL:MBLA:1,2006-09-02T17:30:00Z,30.4367,-88.0117,14.2,1.6,187.0,99.0,'11111222,11111222,11144222' 
DISL,ioos:station:DISL:MBLA:1,2006-09-02T18:00:00Z,30.4367,-88.0117,14.2,2.1,187.0,99.0,'11111222,11111222,11144222' 
DISL,ioos:station:DISL:MBLA:1,2006-09-02T18:30:00Z,30.4367,-88.0117,14.2,2.7,203.0,99.0,'11111222,11111222,11144222' 
DISL,ioos:station:DISL:MBLA:1,2006-09-02T19:00:00Z,30.4367,-88.0117,14.2,2.9,207.0,99.0,'11111222,11111222,11144222' 
DISL,ioos:station:DISL:MBLA:1,2006-09-02T19:30:00Z,30.4367,-88.0117,14.2,2.6,204.0,99.0,'11111222,11111222,11144222' 
DISL,ioos:station:DISL:MBLA:1,2006-09-02T20:00:00Z,30.4367,-88.0117,14.2,2.1,205.0,99.0,'11111222,11111222,11144222' 
DISL,ioos:station:DISL:MBLA:1,2006-09-02T20:30:00Z,30.4367,-88.0117,14.2,1.7,219.0,99.0,'11111222,11111222,11144222' 
DISL,ioos:station:DISL:MBLA:1,2006-09-02T21:00:00Z,30.4367,-88.0117,14.2,2.1,200.0,99.0,'11111222,11111222,11144222' 
DISL,ioos:station:DISL:MBLA:1,2006-09-02T21:30:00Z,30.4367,-88.0117,14.2,4.3,208.0,99.0,'11111222,11111222,11144222' 
DISL,ioos:station:DISL:MBLA:1,2006-09-02T22:00:00Z,30.4367,-88.0117,14.2,5.4,215.0,99.0,'11111222,11111222,11144222' 
DISL,ioos:station:DISL:MBLA:1,2006-09-02T22:30:00Z,30.4367,-88.0117,14.2,5.0,219.0,99.0,'11111222,11111222,11144222' 
DISL,ioos:station:DISL:MBLA:1,2006-09-02T23:00:00Z,30.4367,-88.0117,14.2,6.1,226.0,99.0,'11111222,11111222,11144222' 
DISL,ioos:station:DISL:MBLA:1,2006-09-02T23:30:00Z,30.4367,-88.0117,14.2,5.8,225.0,99.0,'11111222,11111222,11144222' 
DISL,ioos:station:DISL:MBLA:1,2006-09-03T00:00:00Z,30.4367,-88.0117,14.2,7.7,247.0,99.0,'11111222,11111222,11144222' 
DISL,ioos:station:DISL:MBLA:1,2006-09-03T00:30:00Z,30.4367,-88.0117,14.2,6.5,255.0,99.0,'11111222,11111222,11144222' 
DISL,ioos:station:DISL:MBLA:1,2006-09-03T01:00:00Z,30.4367,-88.0117,14.2,5.7,276.0,99.0,'11111222,11111222,11144222' 
DISL,ioos:station:DISL:MBLA:1,2006-09-03T01:30:00Z,30.4367,-88.0117,14.2,4.8,291.0,99.0,'11111222,11111222,11144222' 
DISL,ioos:station:DISL:MBLA:1,2006-09-03T02:00:00Z,30.4367,-88.0117,14.2,5.5,313.0,99.0,'11111222,11111222,11144222' 
DISL,ioos:station:DISL:MBLA:1,2006-09-03T02:30:00Z,30.4367,-88.0117,14.2,6.2,318.0,99.0,'11111222,11111222,11144222' 
DISL,ioos:station:DISL:MBLA:1,2006-09-03T03:00:00Z,30.4367,-88.0117,14.2,5.6,333.0,99.0,'11111222,11111222,11144222' 
DISL,ioos:station:DISL:MBLA:1,2006-09-03T03:30:00Z,30.4367,-88.0117,14.2,2.5,340.0,99.0,'11111222,11111222,11144222' 
DISL,ioos:station:DISL:MBLA:1,2006-09-03T04:00:00Z,30.4367,-88.0117,14.2,2.5,244.0,99.0,'11111222,11111222,11144222' 
DISL,ioos:station:DISL:MBLA:1,2006-09-03T04:30:00Z,30.4367,-88.0117,14.2,2.1,337.0,99.0,'11111222,11111222,11144222' 
DISL,ioos:station:DISL:MBLA:1,2006-09-03T05:00:00Z,30.4367,-88.0117,14.2,2.5,333.0,99.0,'11111222,11111222,11144222' 
DISL,ioos:station:DISL:MBLA:1,2006-09-03T05:30:00Z,30.4367,-88.0117,14.2,1.9,275.0,99.0,'11111222,11111222,11144222' 
DISL,ioos:station:DISL:MBLA:1,2006-09-03T06:00:00Z,30.4367,-88.0117,14.2,9.0,3.0,99.0,'11111222,11111222,11144222' 
DISL,ioos:station:DISL:MBLA:1,2006-09-03T06:30:00Z,30.4367,-88.0117,14.2,3.2,240.0,99.0,'11111222,11111222,11144222' 
DISL,ioos:station:DISL:MBLA:1,2006-09-03T07:00:00Z,30.4367,-88.0117,14.2,3.3,251.0,99.0,'11111222,11111222,11144222' 
DISL,ioos:station:DISL:MBLA:1,2006-09-03T07:30:00Z,30.4367,-88.0117,14.2,2.7,245.0,99.0,'11111222,11111222,11144222' 
DISL,ioos:station:DISL:MBLA:1,2006-09-03T08:00:00Z,30.4367,-88.0117,14.2,2.9,260.0,99.0,'11111222,11111222,11144222' 
DISL,ioos:station:DISL:MBLA:1,2006-09-03T08:30:00Z,30.4367,-88.0117,14.2,2.9,266.0,99.0,'11111222,11111222,11144222' 
DISL,ioos:station:DISL:MBLA:1,2006-09-03T09:00:00Z,30.4367,-88.0117,14.2,2.7,257.0,99.0,'11111222,11111222,11144222' 
DISL,ioos:station:DISL:MBLA:1,2006-09-03T09:30:00Z,30.4367,-88.0117,14.2,3.3,266.0,99.0,'11111222,11111222,11144222' 
DISL,ioos:station:DISL:MBLA:1,2006-09-03T10:00:00Z,30.4367,-88.0117,14.2,3.4,285.0,99.0,'11111222,11111222,11144222' 
DISL,ioos:station:DISL:MBLA:1,2006-09-03T10:30:00Z,30.4367,-88.0117,14.2,3.5,291.0,99.0,'11111222,11111222,11144222' 
DISL,ioos:station:DISL:MBLA:1,2006-09-03T11:00:00Z,30.4367,-88.0117,14.2,4.5,333.0,99.0,'11111222,11111222,11144222' 
DISL,ioos:station:DISL:MBLA:1,2006-09-03T11:30:00Z,30.4367,-88.0117,14.2,4.2,348.0,99.0,'11111222,11111222,11144222' 
DISL,ioos:station:DISL:MBLA:1,2006-09-03T12:00:00Z,30.4367,-88.0117,14.2,3.2,342.0,99.0,'11111222,11111222,11144222' 
DISL,ioos:station:DISL:MBLA:1,2006-09-03T12:30:00Z,30.4367,-88.0117,14.2,3.1,354.0,99.0,'11111222,11111222,11144222' 
DISL,ioos:station:DISL:MBLA:1,2006-09-03T13:00:00Z,30.4367,-88.0117,14.2,2.0,15.0,99.0,'11111222,11111222,11144222' 
DISL,ioos:station:DISL:MBLA:1,2006-09-03T13:30:00Z,30.4367,-88.0117,14.2,0.8,90.0,99.0,'11111222,11111222,11144222' 
DISL,ioos:station:DISL:MBLA:1,2006-09-03T14:00:00Z,30.4367,-88.0117,14.2,1.5,48.0,99.0,'11111222,11111222,11144222' 
DISL,ioos:station:DISL:MBLA:1,2006-09-03T14:30:00Z,30.4367,-88.0117,14.2,1.4,93.0,99.0,'11111222,11111222,11144222' 
DISL,ioos:station:DISL:MBLA:1,2006-09-03T15:00:00Z,30.4367,-88.0117,14.2,1.0,108.0,99.0,'11111222,11111222,11144222' 
DISL,ioos:station:DISL:MBLA:1,2006-09-03T15:30:00Z,30.4367,-88.0117,14.2,2.5,153.0,99.0,'11111222,11111222,11144222' 
DISL,ioos:station:DISL:MBLA:1,2006-09-03T16:00:00Z,30.4367,-88.0117,14.2,2.1,162.0,99.0,'11111222,11111222,11144222' 
DISL,ioos:station:DISL:MBLA:1,2006-09-03T16:30:00Z,30.4367,-88.0117,14.2,2.0,173.0,99.0,'11111222,11111222,11144222' 
DISL,ioos:station:DISL:MBLA:1,2006-09-03T17:00:00Z,30.4367,-88.0117,14.2,3.5,182.0,99.0,'11111222,11111222,11144222' 
DISL,ioos:station:DISL:MBLA:1,2006-09-03T17:30:00Z,30.4367,-88.0117,14.2,4.2,213.0,99.0,'11111222,11111222,11144222' 
DISL,ioos:station:DISL:MBLA:1,2006-09-03T18:00:00Z,30.4367,-88.0117,14.2,5.0,214.0,99.0,'11111222,11111222,11144222' 
DISL,ioos:station:DISL:MBLA:1,2006-09-03T18:30:00Z,30.4367,-88.0117,14.2,6.2,219.0,99.0,'11111222,11111222,11144222' 
DISL,ioos:station:DISL:MBLA:1,2006-09-03T19:00:00Z,30.4367,-88.0117,14.2,5.3,191.0,99.0,'11111222,11111222,11144222' 
DISL,ioos:station:DISL:MBLA:1,2006-09-03T19:30:00Z,30.4367,-88.0117,14.2,5.2,181.0,99.0,'11111222,11111222,11144222' 
DISL,ioos:station:DISL:MBLA:1,2006-09-03T20:00:00Z,30.4367,-88.0117,14.2,5.3,182.0,99.0,'11111222,11111222,11144222' 
DISL,ioos:station:DISL:MBLA:1,2006-09-03T20:30:00Z,30.4367,-88.0117,14.2,5.2,183.0,99.0,'11111222,11111222,11144222' 
DISL,ioos:station:DISL:MBLA:1,2006-09-03T21:00:00Z,30.4367,-88.0117,14.2,4.7,191.0,99.0,'11111222,11111222,11144222' 
DISL,ioos:station:DISL:MBLA:1,2006-09-03T21:30:00Z,30.4367,-88.0117,14.2,4.9,189.0,99.0,'11111222,11111222,11144222' 
DISL,ioos:station:DISL:MBLA:1,2006-09-03T22:00:00Z,30.4367,-88.0117,14.2,4.6,190.0,99.0,'11111222,11111222,11144222' 
DISL,ioos:station:DISL:MBLA:1,2006-09-03T22:30:00Z,30.4367,-88.0117,14.2,4.8,197.0,99.0,'11111222,11111222,11144222' 
DISL,ioos:station:DISL:MBLA:1,2006-09-03T23:00:00Z,30.4367,-88.0117,14.2,4.8,182.0,99.0,'11111222,11111222,11144222' 
DISL,ioos:station:DISL:MBLA:1,2006-09-03T23:30:00Z,30.4367,-88.0117,14.2,4.6,194.0,99.0,'11111222,11111222,11144222' 
DISL,ioos:station:DISL:MBLA:1,2006-09-04T00:00:00Z,30.4367,-88.0117,14.2,5.8,232.0,99.0,'11111222,11111222,11144222' 
DISL,ioos:station:DISL:MBLA:1,2006-09-04T00:30:00Z,30.4367,-88.0117,14.2,6.3,239.0,99.0,'11111222,11111222,11144222' 
DISL,ioos:station:DISL:MBLA:1,2006-09-04T01:00:00Z,30.4367,-88.0117,14.2,5.9,243.0,99.0,'11111222,11111222,11144222' 
DISL,ioos:station:DISL:MBLA:1,2006-09-04T01:30:00Z,30.4367,-88.0117,14.2,5.4,240.0,99.0,'11111222,11111222,11144222' 
DISL,ioos:station:DISL:MBLA:1,2006-09-04T02:00:00Z,30.4367,-88.0117,14.2,4.7,240.0,99.0,'11111222,11111222,11144222' 
DISL,ioos:station:DISL:MBLA:1,2006-09-04T02:30:00Z,30.4367,-88.0117,14.2,3.9,237.0,99.0,'11111222,11111222,11144222' 
DISL,ioos:station:DISL:MBLA:1,2006-09-04T03:00:00Z,30.4367,-88.0117,14.2,3.2,209.0,99.0,'11111222,11111222,11144222' 
DISL,ioos:station:DISL:MBLA:1,2006-09-04T03:30:00Z,30.4367,-88.0117,14.2,3.2,213.0,99.0,'11111222,11111222,11144222' 
DISL,ioos:station:DISL:MBLA:1,2006-09-04T04:00:00Z,30.4367,-88.0117,14.2,3.8,205.0,99.0,'11111222,11111222,11144222' 
DISL,ioos:station:DISL:MBLA:1,2006-09-04T04:30:00Z,30.4367,-88.0117,14.2,3.8,204.0,99.0,'11111222,11111222,11144222' 
DISL,ioos:station:DISL:MBLA:1,2006-09-04T05:00:00Z,30.4367,-88.0117,14.2,4.2,241.0,99.0,'11111222,11111222,11144222' 
DISL,ioos:station:DISL:MBLA:1,2006-09-04T05:30:00Z,30.4367,-88.0117,14.2,3.7,240.0,99.0,'11111222,11111222,11144222' 
DISL,ioos:station:DISL:MBLA:1,2006-09-04T06:00:00Z,30.4367,-88.0117,14.2,3.2,240.0,99.0,'11111222,11111222,11144222' 
DISL,ioos:station:DISL:MBLA:1,2006-09-04T06:30:00Z,30.4367,-88.0117,14.2,3.7,239.0,99.0,'11111222,11111222,11144222' 
DISL,ioos:station:DISL:MBLA:1,2006-09-04T07:00:00Z,30.4367,-88.0117,14.2,3.7,240.0,99.0,'11111222,11111222,11144222' 
DISL,ioos:station:DISL:MBLA:1,2006-09-04T07:30:00Z,30.4367,-88.0117,14.2,3.1,247.0,99.0,'11111222,11111222,11144222' 
DISL,ioos:station:DISL:MBLA:1,2006-09-04T08:00:00Z,30.4367,-88.0117,14.2,3.3,230.0,99.0,'11111222,11111222,11144222' 
DISL,ioos:station:DISL:MBLA:1,2006-09-04T08:30:00Z,30.4367,-88.0117,14.2,3.4,224.0,99.0,'11111222,11111222,11144222' 
DISL,ioos:station:DISL:MBLA:1,2006-09-04T09:00:00Z,30.4367,-88.0117,14.2,3.3,196.0,99.0,'11111222,11111222,11144222' 
DISL,ioos:station:DISL:MBLA:1,2006-09-04T09:30:00Z,30.4367,-88.0117,14.2,3.7,202.0,99.0,'11111222,11111222,11144222' 
DISL,ioos:station:DISL:MBLA:1,2006-09-04T10:00:00Z,30.4367,-88.0117,14.2,4.2,186.0,99.0,'11111222,11111222,11144222' 
DISL,ioos:station:DISL:MBLA:1,2006-09-04T10:30:00Z,30.4367,-88.0117,14.2,3.7,193.0,99.0,'11111222,11111222,11144222' 
DISL,ioos:station:DISL:MBLA:1,2006-09-04T11:00:00Z,30.4367,-88.0117,14.2,1.9,185.0,99.0,'11111222,11111222,11144222' 
DISL,ioos:station:DISL:MBLA:1,2006-09-04T11:30:00Z,30.4367,-88.0117,14.2,4.4,110.0,99.0,'11111222,11111222,11144222' 
DISL,ioos:station:DISL:MBLA:1,2006-09-04T12:00:00Z,30.4367,-88.0117,14.2,5.0,25.0,99.0,'11111222,11111222,11144222' 
DISL,ioos:station:DISL:MBLA:1,2006-09-04T12:30:00Z,30.4367,-88.0117,14.2,4.4,22.0,99.0,'11111222,11111222,11144222' 
DISL,ioos:station:DISL:MBLA:1,2006-09-04T13:00:00Z,30.4367,-88.0117,14.2,3.4,43.0,99.0,'11111222,11111222,11144222' 
DISL,ioos:station:DISL:MBLA:1,2006-09-04T13:30:00Z,30.4367,-88.0117,14.2,2.1,42.0,99.0,'11111222,11111222,11144222' 
DISL,ioos:station:DISL:MBLA:1,2006-09-04T14:00:00Z,30.4367,-88.0117,14.2,0.8,107.0,99.0,'11111222,11111222,11144222' 
DISL,ioos:station:DISL:MBLA:1,2006-09-04T14:30:00Z,30.4367,-88.0117,14.2,1.5,136.0,99.0,'11111222,11111222,11144222' 
DISL,ioos:station:DISL:MBLA:1,2006-09-04T15:00:00Z,30.4367,-88.0117,14.2,3.2,207.0,99.0,'11111222,11111222,11144222' 
DISL,ioos:station:DISL:MBLA:1,2006-09-04T15:30:00Z,30.4367,-88.0117,14.2,3.8,196.0,99.0,'11111222,11111222,11144222' 
DISL,ioos:station:DISL:MBLA:1,2006-09-04T16:00:00Z,30.4367,-88.0117,14.2,3.6,185.0,99.0,'11111222,11111222,11144222' 
DISL,ioos:station:DISL:MBLA:1,2006-09-04T16:30:00Z,30.4367,-88.0117,14.2,3.3,186.0,99.0,'11111222,11111222,11144222' 
DISL,ioos:station:DISL:MBLA:1,2006-09-04T17:00:00Z,30.4367,-88.0117,14.2,3.1,186.0,99.0,'11111222,11111222,11144222' 
DISL,ioos:station:DISL:MBLA:1,2006-09-04T17:30:00Z,30.4367,-88.0117,14.2,3.1,189.0,99.0,'11111222,11111222,11144222' 
DISL,ioos:station:DISL:MBLA:1,2006-09-04T18:00:00Z,30.4367,-88.0117,14.2,3.1,183.0,99.0,'11111222,11111222,11144222' 
DISL,ioos:station:DISL:MBLA:1,2006-09-04T18:30:00Z,30.4367,-88.0117,14.2,3.9,185.0,99.0,'11111222,11111222,11144222' 
DISL,ioos:station:DISL:MBLA:1,2006-09-04T19:00:00Z,30.4367,-88.0117,14.2,4.9,196.0,99.0,'11111222,11111222,11144222' 
DISL,ioos:station:DISL:MBLA:1,2006-09-04T19:30:00Z,30.4367,-88.0117,14.2,5.1,190.0,99.0,'11111222,11111222,11144222' 
DISL,ioos:station:DISL:MBLA:1,2006-09-04T20:00:00Z,30.4367,-88.0117,14.2,4.7,193.0,99.0,'11111222,11111222,11144222' 
DISL,ioos:station:DISL:MBLA:1,2006-09-04T20:30:00Z,30.4367,-88.0117,14.2,4.7,195.0,99.0,'11111222,11111222,11144222' 
DISL,ioos:station:DISL:MBLA:1,2006-09-04T21:00:00Z,30.4367,-88.0117,14.2,5.7,218.0,99.0,'11111222,11111222,11144222' 
DISL,ioos:station:DISL:MBLA:1,2006-09-04T21:30:00Z,30.4367,-88.0117,14.2,5.5,210.0,99.0,'11111222,11111222,11144222' 
DISL,ioos:station:DISL:MBLA:1,2006-09-04T22:00:00Z,30.4367,-88.0117,14.2,5.4,208.0,99.0,'11111222,11111222,11144222' 
DISL,ioos:station:DISL:MBLA:1,2006-09-04T22:30:00Z,30.4367,-88.0117,14.2,5.7,208.0,99.0,'11111222,11111222,11144222' 
DISL,ioos:station:DISL:MBLA:1,2006-09-04T23:00:00Z,30.4367,-88.0117,14.2,5.5,220.0,99.0,'11111222,11111222,11144222' 
DISL,ioos:station:DISL:MBLA:1,2006-09-04T23:30:00Z,30.4367,-88.0117,14.2,5.1,212.0,99.0,'11111222,11111222,11144222' 
DISL,ioos:station:DISL:MBLA:1,2006-09-05T00:00:00Z,30.4367,-88.0117,14.2,4.7,213.0,99.0,'11111222,11111222,11144222' 
DISL,ioos:station:DISL:MBLA:1,2006-09-05T00:30:00Z,30.4367,-88.0117,14.2,4.4,199.0,99.0,'11111222,11111222,11144222' 
DISL,ioos:station:DISL:MBLA:1,2006-09-05T01:00:00Z,30.4367,-88.0117,14.2,4.6,208.0,99.0,'11111222,11111222,11144222' 
DISL,ioos:station:DISL:MBLA:1,2006-09-05T01:30:00Z,30.4367,-88.0117,14.2,4.7,213.0,99.0,'11111222,11111222,11144222' 
DISL,ioos:station:DISL:MBLA:1,2006-09-05T02:00:00Z,30.4367,-88.0117,14.2,4.6,213.0,99.0,'11111222,11111222,11144222' 
DISL,ioos:station:DISL:MBLA:1,2006-09-05T02:30:00Z,30.4367,-88.0117,14.2,5.4,200.0,99.0,'11111222,11111222,11144222' 
DISL,ioos:station:DISL:MBLA:1,2006-09-05T03:00:00Z,30.4367,-88.0117,14.2,5.3,211.0,99.0,'11111222,11111222,11144222' 
DISL,ioos:station:DISL:MBLA:1,2006-09-05T03:30:00Z,30.4367,-88.0117,14.2,5.7,224.0,99.0,'11111222,11111222,11144222' 
DISL,ioos:station:DISL:MBLA:1,2006-09-05T04:00:00Z,30.4367,-88.0117,14.2,4.9,232.0,99.0,'11111222,11111222,11144222' 
DISL,ioos:station:DISL:MBLA:1,2006-09-05T04:30:00Z,30.4367,-88.0117,14.2,5.3,232.0,99.0,'11111222,11111222,11144222' 
DISL,ioos:station:DISL:MBLA:1,2006-09-05T05:00:00Z,30.4367,-88.0117,14.2,5.1,237.0,99.0,'11111222,11111222,11144222' 
DISL,ioos:station:DISL:MBLA:1,2006-09-05T05:30:00Z,30.4367,-88.0117,14.2,4.8,235.0,99.0,'11111222,11111222,11144222' 
DISL,ioos:station:DISL:MBLA:1,2006-09-05T06:00:00Z,30.4367,-88.0117,14.2,3.7,239.0,99.0,'11111222,11111222,11144222' 
DISL,ioos:station:DISL:MBLA:1,2006-09-05T06:30:00Z,30.4367,-88.0117,14.2,4.2,235.0,99.0,'11111222,11111222,11144222' 
DISL,ioos:station:DISL:MBLA:1,2006-09-05T07:00:00Z,30.4367,-88.0117,14.2,4.2,238.0,99.0,'11111222,11111222,11144222' 
DISL,ioos:station:DISL:MBLA:1,2006-09-05T07:30:00Z,30.4367,-88.0117,14.2,4.6,238.0,99.0,'11111222,11111222,11144222' 
DISL,ioos:station:DISL:MBLA:1,2006-09-05T08:00:00Z,30.4367,-88.0117,14.2,4.6,234.0,99.0,'11111222,11111222,11144222' 
DISL,ioos:station:DISL:MBLA:1,2006-09-05T08:30:00Z,30.4367,-88.0117,14.2,4.1,237.0,99.0,'11111222,11111222,11144222' 
DISL,ioos:station:DISL:MBLA:1,2006-09-05T09:00:00Z,30.4367,-88.0117,14.2,4.2,226.0,99.0,'11111222,11111222,11144222' 
DISL,ioos:station:DISL:MBLA:1,2006-09-05T09:30:00Z,30.4367,-88.0117,14.2,4.4,233.0,99.0,'11111222,11111222,11144222' 
DISL,ioos:station:DISL:MBLA:1,2006-09-05T10:00:00Z,30.4367,-88.0117,14.2,4.2,257.0,99.0,'11111222,11111222,11144222' 
DISL,ioos:station:DISL:MBLA:1,2006-09-05T10:30:00Z,30.4367,-88.0117,14.2,2.9,266.0,99.0,'11111222,11111222,11144222' 
DISL,ioos:station:DISL:MBLA:1,2006-09-05T11:00:00Z,30.4367,-88.0117,14.2,3.0,299.0,99.0,'11111222,11111222,11144222' 
DISL,ioos:station:DISL:MBLA:1,2006-09-05T11:30:00Z,30.4367,-88.0117,14.2,3.0,304.0,99.0,'11111222,11111222,11144222' 
DISL,ioos:station:DISL:MBLA:1,2006-09-05T12:00:00Z,30.4367,-88.0117,14.2,3.9,347.0,99.0,'11111222,11111222,11144222' 
DISL,ioos:station:DISL:MBLA:1,2006-09-05T12:30:00Z,30.4367,-88.0117,14.2,2.4,32.0,99.0,'11111222,11111222,11144222' 
DISL,ioos:station:DISL:MBLA:1,2006-09-05T13:00:00Z,30.4367,-88.0117,14.2,0.8,36.0,99.0,'11111222,11111222,11144222' 
DISL,ioos:station:DISL:MBLA:1,2006-09-05T13:30:00Z,30.4367,-88.0117,14.2,1.4,101.0,99.0,'11111222,11111222,11144222' 
DISL,ioos:station:DISL:MBLA:1,2006-09-05T14:00:00Z,30.4367,-88.0117,14.2,1.3,122.0,99.0,'11111222,11111222,11144222' 
DISL,ioos:station:DISL:MBLA:1,2006-09-05T14:30:00Z,30.4367,-88.0117,14.2,1.9,143.0,99.0,'11111222,11111222,11144222' 
DISL,ioos:station:DISL:MBLA:1,2006-09-05T15:00:00Z,30.4367,-88.0117,14.2,2.2,166.0,99.0,'11111222,11111222,11144222' 
DISL,ioos:station:DISL:MBLA:1,2006-09-05T15:30:00Z,30.4367,-88.0117,14.2,2.5,181.0,99.0,'11111222,11111222,11144222' 
DISL,ioos:station:DISL:MBLA:1,2006-09-05T16:00:00Z,30.4367,-88.0117,14.2,3.4,173.0,99.0,'11111222,11111222,11144222' 
DISL,ioos:station:DISL:MBLA:1,2006-09-05T16:30:00Z,30.4367,-88.0117,14.2,3.2,184.0,99.0,'11111222,11111222,11144222' 
DISL,ioos:station:DISL:MBLA:1,2006-09-05T17:00:00Z,30.4367,-88.0117,14.2,4.3,204.0,99.0,'11111222,11111222,11144222' 
DISL,ioos:station:DISL:MBLA:1,2006-09-05T17:30:00Z,30.4367,-88.0117,14.2,4.8,208.0,99.0,'11111222,11111222,11144222' 